Location: Waco, TX
(31.5480°N, 97.1670°W)
Time: 21:42:53

ISS - Pass Details

Date: 14 March 2018
Orbit: 403 x 406 km, 51.6° (Epoch: 24 March)

Event Time Altitude Azimuth Distance (km) Brightness Sun altitude
Rises 23:40:25 0° 203° (SSW) 2,308 - -49.7°
Reaches altitude 10° 23:42:38 10° 192° (SSW) 1,453 - -50.0°
Maximum altitude 23:45:31 29° 130° (SE) 764 - -50.5°
Drops below altitude 10° 23:48:25 10° 67° (ENE) 1,461 - -50.9°
Sets 23:50:39 0° 56° (NE) 2,324 - -51.3°
